Weather History for Stanton, MN

Change the Weather History Date:

Wednesday, October 17, 2012

  Actual Average (KLVN) Record (KLVN)
Temperature  
Mean Temperature 52 °F -  
Max Temperature 63 °F 59 °F 83 °F (1953)
Min Temperature 42 °F 38 °F 6 °F (1998)
Degree Days  
Heating Degree Days 12    
Growing Degree Days 2 (Base 50)    
Moisture  
Dew Point 44 °F    
Average Humidity 71    
Maximum Humidity 91    
Minimum Humidity 45    
Precipitation  
Precipitation 0.00 in - - ()
Sea Level Pressure  
Sea Level Pressure 29.27 in    
Wind  
Wind Speed 7 mph (SW)    
Max Wind Speed 24 mph    
Max Gust Speed 33 mph    
Visibility 9 miles    
Events Rain    
Averages and records for this station are not official NWS values.
T = Trace of Precipitation, MM = Missing Value Source: NWS Daily Summary

Daily Weather History Graph

Daily Weather History Graph

Search for Another Location

Airport:

Trip Planner

Search our weather history database for the weather conditions in past years. The results will help you decide how hot, cold, wet, or windy it might be!

Date:

Astronomy

Oct. 17, 2012 Rise Set
Actual Time 7:30 AM CDT 6:23 PM CDT
Civil Twilight 7:00 AM CDT 6:52 PM CDT
Nautical Twilight 6:27 AM CDT 7:26 PM CDT
Astronomical Twilight 5:53 AM CDT 8:00 PM CDT
Moon 10:12 AM CDT (10/17) 7:52 PM CDT (10/17)
Length of Visible Light 11h 51m
Length of Day
10h 53m
Waxing Crescent, 7% of the Moon is Illuminated
Oct 17
Waxing Crescent
Oct 21
First Quarter
Oct 29
Full
Nov 6
Last Quarter
Nov 13
New

Hourly Weather History & Observations

Time (CDT) Temp. Dew Point Humidity Pressure Visibility Wind Dir Wind Speed Gust Speed Precip Events Conditions
12:12 AM 43.7 °F 40.8 °F 90% 29.36 in 7.0 mi Calm Calm - N/A   Clear
12:32 AM 43.5 °F 40.6 °F 90% 29.36 in 7.0 mi Calm Calm - N/A   Clear
12:52 AM 43.2 °F 40.3 °F 90% 29.35 in 7.0 mi Calm Calm - N/A   Clear
1:12 AM 43.3 °F 40.6 °F 90% 29.33 in 7.0 mi Calm Calm - N/A   Clear
1:33 AM 44.1 °F 40.8 °F 88% 29.33 in 7.0 mi Calm Calm - N/A   Clear
1:52 AM 43.5 °F 40.5 °F 89% 29.33 in 7.0 mi Calm Calm - N/A   Clear
2:12 AM 42.8 °F 39.6 °F 88% 29.33 in 7.0 mi Calm Calm - N/A   Clear
2:33 AM 44.4 °F 41.7 °F 90% 29.33 in 7.0 mi Calm Calm - N/A   Clear
2:52 AM 44.2 °F 41.5 °F 90% 29.32 in 7.0 mi Calm Calm - N/A   Clear
3:12 AM 43.5 °F 40.5 °F 89% 29.32 in 7.0 mi Calm Calm - N/A   Clear
3:32 AM 44.4 °F 41.7 °F 90% 29.32 in 7.0 mi Calm Calm - N/A   Clear
3:52 AM 44.2 °F 41.7 °F 91% 29.31 in 7.0 mi Calm Calm - N/A   Clear
4:12 AM 45.9 °F 42.4 °F 88% 29.29 in 10.0 mi Calm Calm - N/A   Clear
4:32 AM 48.7 °F 43.7 °F 83% 29.29 in 10.0 mi SSW 3.5 mph - N/A   Clear
4:52 AM 50.2 °F 45.1 °F 83% 29.28 in 10.0 mi Calm Calm - N/A   Clear
5:12 AM 51.3 °F 45.5 °F 81% 29.28 in 10.0 mi SW 3.5 mph - N/A   Scattered Clouds
5:32 AM 54.3 °F 46.6 °F 75% 29.25 in 10.0 mi Calm Calm - N/A   Mostly Cloudy
5:52 AM 55.9 °F 46.4 °F 70% 29.24 in 10.0 mi SE 6.9 mph - N/A   Scattered Clouds
6:12 AM 54.7 °F 46.6 °F 74% 29.24 in 10.0 mi South 9.2 mph - N/A   Scattered Clouds
6:52 AM 57.0 °F 46.2 °F 67% 29.21 in 10.0 mi SSE 9.2 mph - N/A   Overcast
7:12 AM 56.8 °F 46.4 °F 68% 29.20 in 10.0 mi SSE 10.4 mph - N/A   Mostly Cloudy
7:32 AM 58.1 °F 46.4 °F 65% 29.19 in 10.0 mi SSE 12.7 mph 19.6 mph N/A   Mostly Cloudy
7:52 AM 59.0 °F 46.6 °F 63% 29.18 in 10.0 mi SSE 13.8 mph 18.4 mph N/A   Overcast
8:12 AM 58.5 °F 46.9 °F 66% 29.19 in 10.0 mi South 11.5 mph 20.7 mph N/A   Mostly Cloudy
8:32 AM 58.6 °F 47.3 °F 66% 29.19 in 10.0 mi South 16.1 mph 20.7 mph N/A   Scattered Clouds
8:52 AM 60.3 °F 47.3 °F 62% 29.19 in 10.0 mi South 16.1 mph 23.0 mph N/A   Scattered Clouds
9:12 AM 60.8 °F 47.7 °F 62% 29.19 in 10.0 mi South 15.0 mph 21.9 mph N/A   Mostly Cloudy
9:32 AM 61.7 °F 47.8 °F 60% 29.18 in 10.0 mi South 15.0 mph 21.9 mph N/A   Overcast
9:52 AM 61.7 °F 47.8 °F 60% 29.18 in 10.0 mi South 13.8 mph 24.2 mph N/A   Mostly Cloudy
10:12 AM 61.3 °F 48.2 °F 62% 29.18 in 10.0 mi South 13.8 mph 23.0 mph N/A   Scattered Clouds
10:32 AM 61.7 °F 48.4 °F 62% 29.18 in 10.0 mi SSW 12.7 mph 20.7 mph N/A   Clear
10:52 AM 62.8 °F 49.1 °F 61% 29.19 in 10.0 mi SSW 21.9 mph 31.1 mph N/A   Clear
11:12 AM 63.1 °F 49.1 °F 60% 29.20 in 10.0 mi SW 24.2 mph 33.4 mph N/A   Scattered Clouds
11:52 AM 57.9 °F 51.3 °F 78% 29.23 in 10.0 mi WSW 12.7 mph 24.2 mph N/A Rain Light Rain
12:12 PM 57.9 °F 51.8 °F 80% 29.23 in 10.0 mi SW 11.5 mph - N/A Rain Light Rain
12:32 PM 58.1 °F 50.5 °F 76% 29.24 in 10.0 mi WSW 18.4 mph 23.0 mph N/A   Overcast
12:52 PM 57.9 °F 48.7 °F 71% 29.24 in 10.0 mi WSW 18.4 mph 25.3 mph N/A   Overcast
1:12 PM 57.2 °F 47.7 °F 70% 29.25 in 10.0 mi WSW 18.4 mph 27.6 mph N/A   Overcast
1:32 PM 57.2 °F 46.4 °F 67% 29.24 in 10.0 mi WSW 17.3 mph 25.3 mph N/A   Overcast
1:52 PM 57.7 °F 45.9 °F 65% 29.26 in 10.0 mi WSW 12.7 mph 21.9 mph N/A   Overcast
2:12 PM 58.6 °F 45.1 °F 61% 29.25 in 10.0 mi WSW 12.7 mph 19.6 mph N/A   Overcast
2:31 PM 59.2 °F 45.0 °F 59% 29.24 in 10.0 mi WSW 16.1 mph 21.9 mph N/A   Overcast
2:52 PM 60.8 °F 43.0 °F 52% 29.24 in 10.0 mi WSW 12.7 mph 23.0 mph N/A   Overcast
3:12 PM 61.9 °F 40.5 °F 45% 29.24 in 10.0 mi WSW 15.0 mph 23.0 mph N/A   Mostly Cloudy
3:32 PM 61.0 °F 40.1 °F 46% 29.25 in 10.0 mi WSW 15.0 mph 24.2 mph N/A   Scattered Clouds
3:52 PM 59.7 °F 39.2 °F 47% 29.25 in 10.0 mi WSW 15.0 mph 21.9 mph N/A   Scattered Clouds
4:12 PM 59.4 °F 39.0 °F 47% 29.25 in 10.0 mi WSW 12.7 mph 17.3 mph N/A   Scattered Clouds
4:32 PM 60.1 °F 38.7 °F 45% 29.25 in 10.0 mi WSW 16.1 mph 19.6 mph N/A   Mostly Cloudy
4:52 PM 59.4 °F 37.8 °F 45% 29.26 in 10.0 mi WSW 13.8 mph - N/A   Overcast
5:12 PM 58.3 °F 37.6 °F 46% 29.26 in 10.0 mi WSW 12.7 mph 18.4 mph N/A   Overcast
5:32 PM 57.2 °F 37.8 °F 48% 29.26 in 10.0 mi WSW 13.8 mph 20.7 mph N/A   Overcast
5:52 PM 56.7 °F 37.8 °F 49% 29.27 in 10.0 mi WSW 10.4 mph - N/A   Overcast
6:13 PM 55.9 °F 39.0 °F 53% 29.28 in 10.0 mi West 13.8 mph 17.3 mph N/A   Overcast
6:32 PM 55.6 °F 39.9 °F 56% 29.29 in 10.0 mi WSW 12.7 mph - N/A   Overcast
6:52 PM 54.5 °F 41.2 °F 61% 29.29 in 10.0 mi WSW 13.8 mph 19.6 mph N/A   Overcast
7:13 PM 53.8 °F 42.4 °F 65% 29.30 in 10.0 mi WSW 15.0 mph 23.0 mph N/A   Overcast
7:32 PM 52.0 °F 43.7 °F 73% 29.31 in 10.0 mi WSW 12.7 mph 18.4 mph N/A   Overcast
7:52 PM 51.4 °F 43.7 °F 75% 29.31 in 10.0 mi West 13.8 mph - N/A   Overcast
8:13 PM 50.9 °F 43.9 °F 77% 29.32 in 10.0 mi WSW 15.0 mph 19.6 mph N/A   Overcast
8:32 PM 49.1 °F 44.4 °F 84% 29.31 in 7.0 mi West 12.7 mph 17.3 mph N/A   Overcast
8:52 PM 48.7 °F 43.2 °F 81% 29.32 in 10.0 mi West 11.5 mph 18.4 mph N/A   Overcast
9:12 PM 48.6 °F 42.1 °F 78% 29.31 in 10.0 mi West 11.5 mph - N/A   Overcast
9:32 PM 48.4 °F 41.4 °F 77% 29.30 in 10.0 mi West 12.7 mph 17.3 mph N/A   Overcast
9:52 PM 48.2 °F 41.4 °F 77% 29.30 in 10.0 mi West 11.5 mph - N/A   Overcast
10:12 PM 47.7 °F 41.0 °F 78% 29.29 in 10.0 mi West 13.8 mph - N/A   Overcast
10:32 PM 47.7 °F 40.6 °F 77% 29.29 in 10.0 mi West 10.4 mph 16.1 mph N/A   Overcast
10:52 PM 47.5 °F 40.3 °F 76% 29.29 in 10.0 mi West 11.5 mph 18.4 mph N/A   Overcast
11:12 PM 47.3 °F 40.5 °F 77% 29.28 in 10.0 mi West 10.4 mph - N/A   Overcast
11:32 PM 46.8 °F 41.0 °F 80% 29.28 in 10.0 mi West 10.4 mph - N/A   Overcast
11:52 PM 46.6 °F 41.0 °F 81% 29.28 in 10.0 mi West 12.7 mph - N/A   Overcast